Retour au catalogue

SL-8 R/B

ActifLEO
NORAD 10962·ROCKET BODY·🇷🇺 Russia

Lancé Jun 21, 1978 depuis Plesetsk Cosmodrome

Loading…

Prochains Passages (prochaines 24 heures)

TLE

FraisSource: Space-Track

Époque: Sep 14, 2026, 19:19 UTC

1 10962U 78063B   26257.80549041  .00000207  00000-0  69558-4 0  9991
2 10962  74.0761  99.9146 0025356 214.2902 145.6619 14.42928473532257

Suivez SL-8 R/B en temps réel avec AllMySat

Download on the App Store